TimeEST,TemperatureF,Dew PointF,Humidity,Sea Level PressureIn,VisibilityMPH,Wind Direction,Wind SpeedMPH,Gust SpeedMPH,PrecipitationIn,Events,Conditions,WindDirDegrees,DateUTC
12:52 AM,28.0,19.0,69,30.22,10.0,Calm,Calm,-,N/A,,Overcast,0,2012-02-10 05:52:00
1:52 AM,28.0,19.0,69,30.19,10.0,Calm,Calm,-,N/A,,Overcast,0,2012-02-10 06:52:00
2:52 AM,28.0,19.9,72,30.19,10.0,Calm,Calm,-,N/A,,Overcast,0,2012-02-10 07:52:00
3:52 AM,28.9,19.9,69,30.17,10.0,Calm,Calm,-,N/A,,Overcast,0,2012-02-10 08:52:00
4:52 AM,28.0,21.0,75,30.16,10.0,South,3.5,-,N/A,,Overcast,190,2012-02-10 09:52:00
5:52 AM,28.0,21.9,78,30.14,10.0,South,3.5,-,N/A,,Overcast,170,2012-02-10 10:52:00
6:52 AM,28.9,21.9,75,30.14,10.0,South,3.5,-,N/A,,Overcast,180,2012-02-10 11:52:00
7:52 AM,28.9,21.9,75,30.13,9.0,South,3.5,-,N/A,,Overcast,190,2012-02-10 12:52:00
8:52 AM,30.0,21.9,72,30.15,8.0,South,4.6,-,N/A,,Overcast,190,2012-02-10 13:52:00
9:52 AM,30.9,21.9,69,30.13,10.0,South,6.9,-,N/A,,Overcast,190,2012-02-10 14:52:00
10:52 AM,33.1,21.9,64,30.12,10.0,SSW,8.1,-,N/A,,Overcast,200,2012-02-10 15:52:00
11:52 AM,33.1,23.0,66,30.10,5.0,South,6.9,-,0.00,Snow,Light Snow,190,2012-02-10 16:52:00
12:09 PM,30.2,24.8,80,30.07,1.0,SSW,6.9,-,0.00,Snow,Light Snow,210,2012-02-10 17:09:00
12:31 PM,30.2,26.6,86,30.06,1.0,SW,5.8,-,0.01,Snow,Light Snow,220,2012-02-10 17:31:00
12:52 PM,30.0,28.0,92,30.07,1.2,SSW,6.9,-,0.02,Snow,Light Snow,200,2012-02-10 17:52:00
1:52 PM,30.9,28.9,92,30.04,1.0,South,9.2,-,0.02,Snow,Light Snow,190,2012-02-10 18:52:00
2:02 PM,30.2,28.4,93,30.01,1.0,SSW,10.4,-,0.00,Snow,Light Snow,200,2012-02-10 19:02:00
2:52 PM,30.9,28.9,92,30.01,1.0,South,6.9,-,0.01,Snow,Light Snow,190,2012-02-10 19:52:00
3:52 PM,32.0,28.9,88,30.01,2.0,South,9.2,-,0.01,Snow,Light Snow,190,2012-02-10 20:52:00
4:52 PM,32.0,28.9,88,30.00,2.0,SSW,5.8,-,0.00,Snow,Light Snow,200,2012-02-10 21:52:00
5:35 PM,32.0,28.4,87,29.97,2.0,South,9.2,-,0.00,Snow,Light Snow,190,2012-02-10 22:35:00
5:52 PM,32.0,28.9,88,29.99,2.0,South,8.1,-,0.00,Snow,Light Snow,190,2012-02-10 22:52:00
6:18 PM,32.0,30.2,93,29.96,2.0,SSW,6.9,-,0.00,Snow,Light Snow,200,2012-02-10 23:18:00
6:52 PM,32.0,30.0,92,29.97,2.0,South,8.1,-,0.00,Snow,Light Snow,190,2012-02-10 23:52:00
7:52 PM,32.0,30.0,92,29.97,2.0,SSW,9.2,-,0.01,Snow,Light Snow,200,2012-02-11 00:52:00
8:52 PM,32.0,30.0,92,29.95,2.0,SSW,9.2,-,0.00,Snow,Light Snow,210,2012-02-11 01:52:00
9:52 PM,32.0,30.0,92,29.94,2.5,SSW,9.2,-,0.01,Snow,Light Snow,210,2012-02-11 02:52:00
10:21 PM,32.0,30.2,93,29.91,1.8,SW,10.4,-,0.00,Snow,Light Snow,220,2012-02-11 03:21:00
10:52 PM,32.0,30.0,92,29.92,2.0,SW,8.1,-,0.00,Snow,Light Snow,230,2012-02-11 03:52:00
11:52 PM,32.0,30.9,96,29.91,2.0,SW,6.9,-,0.00,Snow,Light Snow,230,2012-02-11 04:52:00